Wind_Speed
64 67 69 73 76 79 80 86 92 93 98 106 114 118 124 129 134 126 119 104 92 84 70 64 55 45 37 39 41 42 42 42 44 52 58 63 67 65 62 63 63 55 45 51
65 68 71 73 76 84 89 90 90 91 97 105 113 116 126 133 135 133 125 109 96 84 76 65 57 47 41 40 40 41 40 39 39 47 53 57 62 64 60 53 50 56 46 54
67 70 71 73 78 83 87 94 92 93 95 104 112 118 124 131 136 141 130 112 101 85 75 67 58 51 46 43 40 38 36 37 39 42 48 51 54 56 60 50 50 50 47 42
69 71 74 77 78 84 90 96 96 94 99 105 113 122 128 133 138 140 129 114 105 88 73 69 59 52 47 46 43 39 34 36 37 42 47 48 47 50 58 48 48 47 49 42
70 73 75 78 81 87 88 97 99 99 99 107 113 118 126 135 140 145 134 116 108 95 81 65 61 57 48 49 43 38 37 38 36 39 41 43 44 49 53 51 44 43 46 46
69 73 77 79 82 87 90 95 101 101 103 107 113 119 128 137 139 144 138 114 102 92 83 72 60 53 51 46 44 39 35 34 35 38 42 38 40 45 46 48 44 45 45 49
70 74 79 81 87 89 92 95 101 106 103 109 116 122 129 135 142 145 143 118 102 90 81 71 63 55 49 45 41 39 39 34 34 37 41 40 39 40 42 41 43 45 43 43
73 74 79 82 85 89 92 98 101 99 108 112 113 122 128 135 144 149 148 130 109 93 81 70 65 60 51 44 43 41 40 40 38 39 40 41 41 40 39 39 42 41 39 41
74 76 79 82 86 91 95 98 101 99 108 109 113 120 128 132 138 144 151 142 115 102 85 71 61 55 55 50 46 44 44 42 39 41 42 43 43 41 40 38 40 40 39 39
74 78 82 84 90 96 99 100 103 105 110 113 116 119 128 134 140 147 148 147 121 102 89 76 67 57 52 52 51 48 44 39 37 39 40 43 46 44 41 39 39 39 39 38
74 80 84 86 91 96 100 100 105 110 111 112 117 120 127 136 141 148 150 148 124 104 90 78 67 62 59 55 50 49 45 40 33 34 37 41 42 42 44 42 39 38 37 37
76 83 85 91 92 96 100 99 104 107 111 113 119 122 128 135 142 148 150 153 134 114 97 84 70 61 58 57 55 48 45 39 37 33 33 35 38 41 41 43 41 40 37 36
79 84 86 92 93 98 103 101 106 109 114 118 123 125 129 137 141 148 150 155 140 128 105 89 74 63 60 58 56 54 48 40 37 37 34 34 36 38 41 41 43 43 41 37
82 86 89 92 95 99 104 104 107 112 118 121 124 125 130 135 141 146 154 153 151 136 112 96 78 66 62 62 59 54 48 44 39 36 37 36 34 37 40 42 45 45 44 40
84 89 89 94 97 99 104 105 110 115 119 124 125 127 132 136 143 147 153 157 145 138 117 99 81 70 65 63 59 54 50 45 41 38 36 37 35 35 38 41 45 45 44 43
86 90 93 97 98 101 104 108 112 116 122 125 128 131 135 137 144 149 156 155 139 134 119 101 85 72 66 64 61 56 50 44 41 39 37 37 36 35 36 37 41 45 46 46
88 90 93 96 101 105 110 112 115 120 124 126 129 132 136 139 143 152 157 154 140 135 119 104 88 75 69 65 61 56 50 45 41 38 37 36 37 36 36 37 39 42 45 46
88 90 93 99 102 106 110 112 118 122 127 128 131 133 137 140 146 151 156 157 140 135 121 106 89 78 73 70 63 56 50 45 41 38 36 35 36 36 37 37 39 40 42 46
88 93 96 100 103 108 111 114 120 122 127 130 132 135 139 142 144 152 156 158 147 134 123 106 90 81 75 71 64 58 52 46 41 38 36 35 35 36 37 38 39 40 42 46
92 95 97 102 103 110 113 118 122 123 127 130 133 138 142 145 150 154 158 162 152 135 123 105 92 84 78 71 65 59 53 48 43 40 37 35 35 36 37 39 40 41 43 45
94 97 99 105 106 111 118 120 124 125 130 133 136 140 144 148 154 156 161 164 154 137 126 107 94 85 81 74 67 61 55 49 45 42 39 37 35 36 37 39 41 42 44 46
98 102 102 105 107 113 117 121 125 128 131 136 138 142 146 149 154 158 159 161 156 141 126 108 95 88 83 76 67 61 56 52 47 43 40 38 37 37 37 39 41 44 45 47
103 102 105 106 109 117 120 122 127 132 133 139 141 145 146 151 155 159 161 157 157 140 128 112 97 90 84 76 68 61 56 52 49 45 42 40 39 38 38 39 41 43 46 48
102 103 105 107 111 118 120 124 129 132 135 139 144 147 149 155 157 161 161 156 156 145 129 113 99 91 83 75 71 65 58 52 48 46 44 41 40 39 39 40 41 42 45 48
101 104 106 109 114 119 122 126 132 132 138 140 144 148 153 156 158 162 164 158 157 149 128 109 98 92 82 76 71 66 61 55 50 45 44 42 41 40 39 40 41 42 44 46
102 104 110 113 116 121 124 129 133 134 139 142 146 149 154 157 161 163 171 157 163 144 126 109 99 90 81 76 70 65 60 56 52 48 44 43 42 40 39 39 40 42 43 45
102 106 113 117 119 122 125 130 133 135 141 144 148 152 157 161 163 169 165 159 146 136 121 107 98 87 81 75 69 65 59 55 51 48 45 43 41 40 39 39 39 40 42 43
Wind_Direction
338 340 340 340 344 343 342 342 344 348 354 356 357 355 355 356 356 355 352 350 347 344 343 337 331 323 311 299 293 285 280 273 265 264 267 265 266 267 266 265 266 266 264 266
336 338 339 339 342 343 344 346 344 348 353 356 358 356 355 355 357 357 354 349 346 344 342 339 333 325 315 305 300 294 289 281 270 265 265 265 266 268 268 264 260 261 257 261
333 335 337 339 341 345 345 345 346 348 351 356 355 355 355 355 355 354 354 348 346 345 343 341 335 327 318 312 306 298 292 282 275 268 267 266 266 268 267 264 260 253 253 243
330 333 334 337 338 341 343 345 346 347 351 355 356 356 355 355 356 355 353 349 346 344 342 339 338 328 322 315 311 304 297 281 276 271 268 268 267 268 269 264 259 252 248 237
327 330 332 335 335 337 339 342 346 346 351 355 356 355 355 355 356 355 354 350 345 343 340 340 334 328 325 316 313 305 297 284 283 275 271 270 269 265 265 269 261 254 249 246
325 327 331 333 334 335 338 339 346 347 350 355 356 354 354 354 355 355 354 351 348 343 341 339 338 329 323 317 314 309 300 291 283 274 273 273 266 266 265 265 266 262 250 243
322 325 329 332 334 337 338 339 341 344 352 353 355 355 355 356 354 355 355 352 350 345 342 337 336 333 326 320 314 309 303 296 287 279 276 272 270 267 265 264 262 258 254 248
321 324 327 328 332 335 338 338 343 348 351 350 354 355 355 355 354 354 357 353 349 347 343 340 336 332 327 322 315 309 302 296 288 279 275 273 271 268 266 261 258 256 251 244
319 322 324 326 329 332 335 337 340 341 345 348 355 354 356 354 355 354 355 355 350 348 343 340 337 332 327 324 320 311 305 298 290 281 274 270 267 267 266 264 261 257 250 240
318 320 322 324 328 330 332 333 340 343 345 348 351 354 355 355 355 354 355 356 352 349 344 340 337 336 329 325 322 316 309 301 294 285 275 269 267 265 264 262 260 257 254 246
316 318 320 324 327 329 331 334 337 341 343 347 350 354 354 356 354 355 354 357 354 351 346 342 338 335 332 328 324 320 314 306 302 288 280 273 268 264 261 259 257 256 251 245
315 316 319 321 325 327 329 333 339 342 345 348 350 353 353 355 355 354 355 354 354 353 348 344 340 335 332 328 326 320 313 307 300 295 283 274 269 264 261 257 255 253 249 243
314 316 318 321 323 326 329 331 338 342 344 346 348 351 351 352 354 352 353 354 356 353 350 345 340 336 332 328 323 318 314 308 299 293 285 277 269 263 258 255 252 248 246 238
313 316 318 321 322 326 327 329 335 339 344 345 347 349 350 351 351 350 351 353 354 352 350 345 341 336 333 331 325 320 314 307 300 290 284 278 269 263 259 251 249 245 243 237
312 316 318 320 324 325 328 331 335 339 344 345 347 349 350 349 351 349 350 353 352 353 350 346 340 337 335 331 327 321 315 309 301 292 283 277 272 263 262 258 253 247 242 237
313 315 317 319 324 324 328 333 335 338 341 344 344 347 348 348 349 348 349 351 350 353 350 346 340 337 336 334 329 324 317 310 302 295 286 279 270 266 260 255 254 250 243 236
312 315 319 320 323 324 329 333 335 338 341 343 344 345 347 347 348 347 349 351 348 353 349 346 341 337 337 335 330 325 318 313 306 297 290 281 273 265 261 255 250 246 242 239
311 313 318 321 322 324 331 333 334 337 340 341 342 344 344 345 347 346 348 350 347 351 348 346 343 339 338 336 332 327 321 314 308 301 293 284 275 268 260 257 251 246 239 235
309 314 317 320 322 325 329 331 334 336 339 341 342 342 342 344 346 346 346 347 347 347 347 345 343 340 338 336 332 328 323 316 310 303 296 287 277 270 263 256 253 245 239 234
308 312 317 318 321 325 328 330 333 336 337 338 340 340 342 343 344 346 344 346 346 347 345 344 342 340 338 336 332 327 322 316 311 305 299 290 280 272 265 258 252 248 242 236
309 313 317 318 322 325 328 329 331 333 335 336 339 338 340 342 343 344 343 344 344 345 344 342 341 340 338 335 332 328 322 317 311 305 299 292 284 275 267 261 254 249 244 237
310 314 315 319 322 325 327 329 331 331 333 334 337 337 338 340 343 341 342 343 344 344 342 341 340 340 338 334 331 328 323 317 311 306 300 293 286 278 270 262 256 251 246 241
309 313 315 319 321 323 324 326 329 328 331 332 335 337 337 336 340 340 340 342 344 343 341 339 340 339 337 333 330 327 322 317 312 307 301 294 287 280 273 266 259 253 247 244
309 311 317 318 319 322 323 324 326 328 330 333 335 335 335 336 337 337 338 340 341 341 339 338 338 337 336 332 329 326 322 317 311 307 303 297 290 284 276 269 262 256 251 245
309 312 315 316 319 319 322 323 325 327 330 330 334 335 332 335 336 335 336 338 337 338 338 337 337 336 334 331 328 325 322 318 313 307 302 298 293 287 280 273 267 260 255 249
308 311 314 315 318 319 321 321 324 324 329 330 331 331 332 333 334 333 334 337 336 336 336 335 335 335 333 330 328 324 320 317 313 309 304 298 294 289 283 277 270 265 259 254
307 309 312 315 316 318 319 321 322 324 327 329 329 330 330 333 334 333 335 334 336 336 334 333 333 333 331 330 327 324 320 317 314 311 307 301 295 290 285 280 273 268 262 258
Height
10712 10702 10692 10681 10668 10655 10641 10624 10605 10593 10574 10553 10532 10508 10485 10460 10434 10406 10378 10358 10336 10318 10307 10293 10285 10277 10271 10264 10260 10258 10256 10259 10262 10257 10252 10251 10250 10253 10258 10261 10266 10273 10281 10293
10705 10696 10686 10674 10663 10650 10636 10621 10603 10587 10568 10548 10529 10504 10478 10448 10425 10397 10371 10346 10330 10310 10296 10284 10273 10266 10260 10253 10248 10244 10243 10243 10244 10242 10239 10238 10236 10235 10238 10244 10253 10257 10263 10270
10698 10688 10678 10668 10656 10644 10629 10614 10595 10586 10564 10540 10520 10500 10476 10447 10413 10385 10360 10336 10320 10304 10284 10273 10264 10254 10245 10241 10236 10232 10231 10227 10225 10224 10219 10219 10222 10221 10217 10229 10234 10237 10243 10252
10691 10681 10670 10659 10646 10635 10622 10605 10589 10570 10551 10529 10507 10485 10461 10439 10413 10385 10357 10330 10308 10296 10281 10260 10255 10246 10237 10227 10222 10219 10219 10214 10210 10207 10204 10203 10207 10207 10198 10210 10216 10223 10224 10232
10683 10672 10663 10652 10639 10626 10611 10596 10578 10566 10546 10523 10501 10479 10456 10431 10402 10377 10355 10330 10299 10280 10268 10258 10242 10232 10228 10214 10211 10208 10204 10200 10198 10193 10190 10191 10193 10189 10186 10188 10197 10207 10209 10212
10675 10665 10654 10642 10632 10619 10604 10590 10574 10553 10538 10515 10493 10471 10447 10418 10397 10367 10339 10319 10299 10275 10253 10241 10234 10224 10213 10206 10198 10194 10191 10189 10185 10179 10174 10177 10178 10174 10174 10176 10183 10185 10190 10196
10667 10657 10647 10634 10619 10608 10594 10580 10565 10547 10527 10504 10481 10461 10437 10413 10383 10363 10334 10308 10289 10270 10252 10231 10221 10212 10203 10196 10190 10184 10178 10178 10173 10167 10162 10160 10161 10160 10162 10164 10166 10168 10173 10178
10658 10649 10638 10627 10616 10602 10587 10571 10557 10542 10525 10503 10478 10455 10433 10408 10374 10343 10319 10295 10274 10260 10244 10227 10208 10196 10192 10187 10178 10173 10167 10162 10159 10154 10150 10146 10144 10145 10146 10148 10150 10154 10160 10164
10649 10640 10630 10620 10608 10594 10581 10565 10550 10536 10520 10500 10475 10451 10429 10409 10385 10355 10322 10291 10265 10244 10229 10216 10205 10192 10179 10173 10168 10161 10153 10147 10143 10139 10135 10132 10129 10130 10131 10133 10135 10139 10144 10149
10639 10628 10619 10608 10596 10581 10568 10553 10536 10521 10507 10487 10463 10440 10419 10395 10368 10344 10319 10294 10267 10239 10219 10204 10189 10180 10172 10162 10154 10146 10140 10133 10128 10123 10121 10118 10114 10116 10118 10120 10122 10125 10129 10135
10628 10617 10607 10597 10586 10574 10560 10545 10527 10509 10495 10474 10451 10426 10406 10382 10357 10331 10306 10286 10263 10241 10217 10199 10182 10166 10156 10150 10144 10134 10126 10119 10116 10110 10107 10103 10102 10104 10104 10106 10109 10111 10116 10120
10617 10606 10596 10585 10574 10562 10550 10536 10518 10499 10482 10462 10441 10417 10397 10373 10348 10326 10298 10274 10245 10225 10207 10191 10176 10161 10148 10137 10129 10123 10114 10108 10101 10098 10093 10090 10089 10088 10091 10092 10095 10098 10102 10108
10604 10595 10585 10574 10561 10548 10536 10522 10505 10489 10468 10450 10427 10402 10381 10360 10338 10316 10293 10267 10239 10214 10198 10182 10167 10150 10137 10128 10117 10107 10100 10096 10090 10084 10081 10077 10075 10074 10074 10079 10081 10084 10088 10094
10592 10582 10572 10562 10550 10538 10522 10508 10492 10476 10458 10440 10418 10397 10375 10353 10332 10309 10284 10258 10230 10204 10184 10170 10155 10141 10127 10116 10105 10096 10087 10081 10077 10073 10067 10063 10062 10060 10060 10062 10064 10068 10075 10081
10579 10569 10560 10549 10538 10525 10512 10496 10480 10463 10445 10423 10404 10385 10363 10342 10321 10298 10274 10250 10224 10198 10175 10159 10145 10131 10118 10104 10094 10085 10075 10067 10063 10059 10055 10050 10049 10047 10047 10049 10050 10054 10061 10069
10567 10556 10546 10534 10523 10510 10498 10483 10466 10450 10431 10412 10391 10370 10351 10331 10308 10286 10263 10240 10213 10191 10167 10148 10134 10120 10109 10094 10081 10071 10062 10056 10049 10045 10041 10037 10035 10034 10034 10036 10037 10041 10046 10053
10553 10543 10532 10521 10507 10493 10480 10465 10450 10431 10414 10394 10376 10357 10337 10318 10298 10273 10250 10226 10200 10181 10159 10140 10124 10109 10097 10085 10073 10061 10050 10042 10036 10031 10027 10024 10021 10020 10020 10021 10023 10026 10031 10038
10540 10531 10520 10507 10494 10480 10465 10450 10435 10417 10398 10381 10361 10344 10326 10308 10287 10266 10243 10220 10192 10171 10150 10130 10114 10098 10082 10070 10060 10049 10040 10031 10023 10018 10013 10010 10007 10006 10006 10007 10009 10012 10016 10023
10526 10516 10505 10493 10480 10466 10452 10436 10422 10404 10385 10365 10349 10329 10312 10295 10275 10254 10230 10207 10183 10161 10140 10119 10102 10087 10072 10059 10047 10037 10027 10019 10011 10005 10000 9997 9994 9992 9992 9993 9995 9997 10000 10005
10512 10501 10491 10479 10466 10452 10437 10419 10406 10389 10372 10353 10336 10314 10296 10278 10255 10236 10213 10194 10172 10150 10131 10111 10091 10075 10062 10047 10035 10024 10014 10005 9998 9992 9987 9983 9980 9978 9977 9978 9980 9982 9986 9989
10496 10486 10474 10461 10448 10435 10421 10402 10386 10372 10355 10337 10321 10298 10279 10259 10240 10220 10199 10175 10154 10135 10117 10097 10079 10063 10048 10034 10021 10010 10000 9992 9984 9978 9973 9968 9965 9964 9962 9962 9963 9966 9970 9973
10477 10469 10458 10446 10430 10417 10403 10387 10370 10353 10338 10319 10302 10283 10261 10243 10226 10204 10183 10167 10140 10119 10102 10082 10065 10048 10033 10020 10008 9997 9986 9978 9970 9963 9958 9953 9949 9947 9946 9946 9947 9948 9952 9956
10461 10452 10439 10428 10414 10400 10384 10370 10353 10336 10320 10303 10284 10266 10248 10228 10210 10190 10168 10151 10131 10109 10086 10067 10050 10033 10018 10004 9993 9983 9973 9963 9954 9948 9942 9937 9933 9931 9929 9928 9929 9930 9933 9937
10446 10435 10426 10411 10397 10384 10369 10354 10337 10321 10304 10288 10269 10249 10233 10210 10194 10170 10150 10133 10116 10094 10074 10053 10035 10019 10003 9989 9976 9966 9957 9949 9940 9933 9927 9922 9917 9914 9912 9911 9911 9912 9914 9917
10430 10418 10407 10396 10383 10368 10353 10336 10319 10303 10287 10270 10254 10235 10215 10197 10179 10156 10134 10113 10093 10075 10058 10038 10020 10003 9988 9974 9961 9950 9939 9931 9924 9918 9912 9906 9901 9897 9895 9894 9894 9894 9895 9897
10413 10400 10388 10377 10362 10349 10334 10319 10302 10286 10270 10253 10235 10220 10199 10186 10166 10140 10118 10092 10076 10053 10037 10019 10002 9987 9972 9959 9946 9935 9924 9915 9906 9900 9895 9890 9885 9882 9879 9877 9876 9876 9877 9879
10396 10385 10373 10359 10344 10331 10317 10303 10286 10270 10252 10236 10217 10200 10178 10162 10142 10120 10098 10079 10055 10036 10018 10002 9985 9969 9956 9943 9930 9919 9909 9900 9891 9884 9878 9873 9868 9865 9863 9861 9859 9858 9859 9860